TimeEDT,TemperatureF,Dew PointF,Humidity,Sea Level PressureIn,VisibilityMPH,Wind Direction,Wind SpeedMPH,Gust SpeedMPH,PrecipitationIn,Events,Conditions,WindDirDegrees,DateUTC
12:15 AM,80.6,75.2,84,30.01,10.0,SW,5.8,-,N/A,,Clear,230,2013-06-13 04:15:00
12:35 AM,80.6,75.2,84,30.01,10.0,WSW,4.6,-,N/A,,Clear,240,2013-06-13 04:35:00
12:55 AM,80.6,75.2,84,30.01,10.0,SW,5.8,-,N/A,,Clear,230,2013-06-13 04:55:00
1:15 AM,78.8,75.2,89,30.00,10.0,SW,4.6,-,N/A,,Clear,230,2013-06-13 05:15:00
1:35 AM,77.0,75.2,94,30.00,10.0,SSW,3.5,-,N/A,,Clear,200,2013-06-13 05:35:00
1:55 AM,77.0,75.2,94,30.00,5.0,SW,4.6,-,N/A,,Clear,230,2013-06-13 05:55:00
2:15 AM,77.0,75.2,94,29.99,4.0,SW,3.5,-,N/A,,Clear,220,2013-06-13 06:15:00
2:35 AM,77.0,75.2,94,29.98,3.0,SSW,4.6,-,N/A,,Clear,210,2013-06-13 06:35:00
2:55 AM,77.0,75.2,94,29.98,4.0,SW,4.6,-,N/A,,Clear,220,2013-06-13 06:55:00
3:15 AM,77.0,75.2,94,29.98,9.0,South,3.5,-,N/A,,Clear,170,2013-06-13 07:15:00
3:35 AM,75.2,75.2,100,29.97,9.0,South,3.5,-,N/A,,Clear,180,2013-06-13 07:35:00
3:55 AM,75.2,75.2,100,29.97,9.0,Calm,Calm,-,N/A,,Clear,0,2013-06-13 07:55:00
4:15 AM,75.2,75.2,100,29.97,7.0,SSW,3.5,-,N/A,,Clear,210,2013-06-13 08:15:00
4:35 AM,75.2,75.2,100,29.97,7.0,Calm,Calm,-,N/A,,Clear,0,2013-06-13 08:35:00
4:55 AM,75.2,75.2,100,29.97,7.0,Calm,Calm,-,N/A,,Clear,0,2013-06-13 08:55:00
5:15 AM,75.2,75.2,100,29.97,7.0,WSW,3.5,-,N/A,,Clear,240,2013-06-13 09:15:00
5:35 AM,75.2,75.2,100,29.98,5.0,Calm,Calm,-,N/A,,Clear,0,2013-06-13 09:35:00
5:55 AM,75.2,75.2,100,29.98,5.0,SW,3.5,-,N/A,,Clear,220,2013-06-13 09:55:00
6:15 AM,75.2,75.2,100,29.99,5.0,Calm,Calm,-,N/A,,Scattered Clouds,0,2013-06-13 10:15:00
6:35 AM,75.2,75.2,100,29.99,4.0,SW,3.5,-,N/A,,Scattered Clouds,220,2013-06-13 10:35:00
6:50 AM,75.2,75.2,100,29.99,10.0,WSW,4.6,-,N/A,,Scattered Clouds,240,2013-06-13 10:50:00
7:50 AM,77.0,77.0,100,30.00,10.0,West,5.8,-,N/A,,Clear,270,2013-06-13 11:50:00
8:50 AM,82.4,77.0,84,30.01,10.0,West,5.8,-,N/A,,Clear,270,2013-06-13 12:50:00
9:50 AM,86.0,77.0,74,30.01,10.0,WSW,5.8,-,N/A,,Clear,240,2013-06-13 13:50:00
10:50 AM,89.6,77.0,66,30.00,10.0,West,9.2,-,N/A,,Clear,270,2013-06-13 14:50:00
11:50 AM,91.4,77.0,63,29.99,10.0,West,11.5,-,N/A,,Scattered Clouds,260,2013-06-13 15:50:00
12:50 PM,91.4,77.0,63,29.97,10.0,WSW,11.5,-,N/A,,Scattered Clouds,250,2013-06-13 16:50:00
1:50 PM,93.2,75.2,56,29.94,10.0,WSW,12.7,-,N/A,,Scattered Clouds,240,2013-06-13 17:50:00
2:50 PM,93.2,73.4,52,29.92,10.0,SSW,11.5,-,N/A,,Scattered Clouds,210,2013-06-13 18:50:00
3:50 PM,89.6,75.2,62,29.90,10.0,SW,5.8,-,N/A,,Scattered Clouds,220,2013-06-13 19:50:00
4:50 PM,86.0,75.2,70,29.90,10.0,SW,11.5,-,N/A,,Scattered Clouds,230,2013-06-13 20:50:00
5:50 PM,80.6,77.0,89,29.88,8.0,SSW,5.8,-,N/A,,Scattered Clouds,210,2013-06-13 21:50:00
6:50 PM,84.2,77.0,79,29.87,10.0,SW,5.8,-,N/A,,Clear,220,2013-06-13 22:50:00
7:50 PM,86.0,75.2,70,29.88,10.0,SW,8.1,-,N/A,,Clear,230,2013-06-13 23:50:00
8:15 PM,84.2,75.2,74,29.88,10.0,SSW,5.8,-,N/A,,Partly Cloudy,210,2013-06-14 00:15:00
8:35 PM,82.4,75.2,79,29.89,9.0,SW,5.8,-,N/A,,Partly Cloudy,220,2013-06-14 00:35:00
8:55 PM,82.4,75.2,79,29.89,10.0,SW,9.2,-,N/A,,Partly Cloudy,230,2013-06-14 00:55:00
9:15 PM,82.4,75.2,79,29.89,10.0,SW,10.4,-,N/A,,Clear,220,2013-06-14 01:15:00
9:35 PM,80.6,75.2,84,29.90,10.0,SW,6.9,-,N/A,,Clear,220,2013-06-14 01:35:00
9:55 PM,80.6,75.2,84,29.89,10.0,SW,8.1,-,N/A,,Clear,220,2013-06-14 01:55:00
10:15 PM,80.6,75.2,84,29.90,10.0,SW,5.8,-,N/A,,Clear,230,2013-06-14 02:15:00
10:35 PM,78.8,75.2,89,29.91,10.0,SW,8.1,-,N/A,,Clear,220,2013-06-14 02:35:00
10:55 PM,77.0,75.2,94,29.91,10.0,SW,4.6,-,N/A,,Clear,230,2013-06-14 02:55:00
11:15 PM,77.0,75.2,94,29.90,8.0,SW,4.6,-,N/A,,Clear,220,2013-06-14 03:15:00
11:35 PM,77.0,75.2,94,29.90,8.0,SSW,5.8,-,N/A,,Clear,210,2013-06-14 03:35:00
11:55 PM,77.0,75.2,94,29.89,7.0,SSW,4.6,-,N/A,,Clear,200,2013-06-14 03:55:00